Location: Unspecified
(0.0000°N, 0.0000°E)
Time: 07:46:52
(UTC+00:00)

Vanguard 2 Rocket - Pass Details

Date: 03 October 2023
Orbit: 552 x 3312 km, 32.9° (Epoch: 06 December)

Event Time Altitude Azimuth Distance (km) Brightness Sun altitude
Rises 15:34:19 0° 314° (NW) 7,289 12.0 33.6°
Reaches altitude 10° 15:39:48 10° 320° (NW) 6,218 11.7 32.2°
Maximum altitude 15:57:54 47° 28° (NNE) 3,249 9.8 27.7°
Drops below altitude 10° 16:09:54 10° 98° (E) 4,283 9.9 24.7°
Sets 16:12:51 0° 105° (ESE) 4,952 10.1 24.0°
